User: anonymous   Login
Location: Unspecified
(0.0000°N, 0.0000°E)
Time: 18:47:55
(UTC+00:00)
Language:

GOSAT - Orbit

View from above orbital plane
View from above orbital plane
View from above satellite
View from above satellite

Ground track
Ground track

The orbit data is extracted from the following two-line orbital elements,

1 33492U 09002A   15246.86064816 -.00000174 +00000-0 -22196-4 0  9997
2 33492 098.0811 354.6903 0001432 100.7285 259.4096 14.67540997354158
Epoch (UTC): 03 September 2015 20:39:20
Eccentricity: 0.0001432
inclination: 98.0811°
perigee height: 668 km
apogee height: 670 km
right ascension of ascending node: 354.6903°
argument of perigee: 100.7285°
revolutions per day: 14.67540997
mean anomaly at epoch: 259.4096°
orbit number at epoch: 35415

The dashed part of the orbit path shows where the satellite is in the earth's shadow,  

DLR